STARLINK-1653, 46352

Orbit data source: Space-Track

STARLINK-1653, 46352 is a payload satellite owned by SpaceX/Seattle (US) in LEO that was launched on Thu, 03 Sep 2020 UTC via an FALCON 9 launch vehicle from the Air Force Eastern Test Range (AFETR). Payload-class satellites include a variety of spacecraft equipped with specific instruments for various scientific and technological missions. These include communications satellites like Starlink; space stations such as the ISS; scientific satellites like the Hubble; Earth observation satellites from companies like Planet Labs, Umbra, and HawkEye 360; GPS; miniature CubeSats for education and research; and military/defense satellites.

Loading next visibility...
Identifier
46352, 2020-062AD
Orbit
LEO
Last TLE update
14 hours ago
Origin
Manufacturer
SpaceX/Seattle
Mission
Operational Commercial Communications
Bus & Motor
STARLINK, Unknown motor
Mass
260 kg wet, ~248 kg dry
Launch date (UTC)
2020-09-03 (5 years ago)
Launch vehicle
FALCON 9
Launch site
Air Force Eastern Test Range (AFETR)
Object type
Payload
Rocket body
Debris
Shape & HBR
Box + 1 Pan, 8.86 m
Radar Cross Section
13.562 m², Large (>1 m²)

Expand to show TLE details & history

TLE from 14 hours ago
0 STARLINK-1653
1 46352U 20062AD  25128.68148644  .00000037  00000-0  21383-4 0  9990
2 46352  53.0550 285.8525 0001216  71.8570 288.2551 15.06393450258803
Epoch: 2025-05-08T16:21Z
Definitive object data (Epoch: 2025-05-08T16:21:20.428Z)
Latitude
-0.00004°
Longitude
173.76886°
Altitude
547.847 km
Speed
7.589 km/s
True Right ascension
19h 03m 24s
True Declination
0° 00' 00"
Sunlit
Object was in full shadow at TLE epoch
Visualization TLE readout
Latitude
-28.3868°
Longitude
15.04668°
Altitude
556.412 km
Speed
7.583 km/s
Apparent Right ascension
05h 47m 03s
Apparent Declination
-44° 15' 17"
Sunlit
Object is in daylight
Visualization observer readout
Local Sidereal Time
14:11:46
Azimuth
245.462° WSW
Elevation
-50.542°
Doppler factor
1
Orbital elements
Apogee altitude
548.344 km
Perigee altitude
546.66 km
Semi-major axis
6,925.639 km
Eccentricity
0.0001216
Inclination
53.055°
RAAN
285.8525°
Arg. of periapsis
71.857°
True anomaly
288.24187°
Mean anomaly
288.2551°
Eccentric anomaly
288.24848°
Mean motion
3.76577 °/min
BSTAR
0.000021383
Orbital period
95.6 mins
Loading maneuver chart data...
Loading SW <> Apogee altitude chart data...
Loading historical data...
Loading historical data...
Loading historical data...
Loading historical data...
Loading historical data...
Loading historical data...
Loading historical data...

STARLINK-1653 Visibility forecast

Observer location: undefined°, undefined°

Span
Click to sort rows by Start time (UTC) header in descending order
Start Az.
Max El. time (UTC)
Max El. Az.
Max El.
End time (UTC)
End Az.
6 mins2025-05-09 13:15:00.570Z232.996° WSW2025-05-09 13:18:00.570Z28.597° NE43.692°2025-05-09 13:21:00.570Z48.534° ENE
4 mins2025-05-09 14:56:00.570Z307.611° NW2025-05-09 14:58:00.570Z346.167° N18.981°2025-05-09 15:00:00.570Z20.103° NNE
4 mins2025-05-09 18:18:00.570Z356.39° N2025-05-09 18:19:00.570Z16.683° NNE20.222°2025-05-09 18:22:00.570Z69.507° E
6 mins2025-05-09 19:57:00.570Z307.905° NW2025-05-09 19:59:00.570Z284.446° WNW44.53°2025-05-09 20:03:00.570Z132.965° SE
|